ギブス彗星

P/2017 W3 ( Gibbs )

English version
Home page
Updated on June 25, 2018

---------------------------------------------------------------------

・ プロフィール

発見日 2017年11月27日
発見光度 19.2等
発見者 Alex R. Gibbs (Catalina Sky Survey)

・ 写真集

・ 軌道要素

Epoch 2018 Feb. 11.0 TT = JDT 2458160.5
T 2018 Feb. 25.07187 TT                                 MPCW
q   3.8372651            (2000.0)            P               Q
n   0.04581751     Peri.  326.46111     -0.98450418     -0.07019247
a   7.7347878      Node   210.75334     +0.09158411     -0.98729726
e   0.5038952      Incl.   18.31679     -0.14954555     -0.14253822
P  21.51
From 130 observations 2017 Nov. 27-2018 May 14, mean residual 0".6.

・ 光度変化

        m1 = 10.0 + 5 logΔ + 10.0 log r

---------------------------------------------------------------------

軌道要素はM.P.E.C. 2018-K95に掲載されたものです。
光度グラフはComet for Windowsで作成したものです。

---------------------------------------------------------------------

Copyright(C) Seiichi Yoshida (comet@aerith.net). All rights reserved.